Canadian, TX

2:45 PM CDT on October 18, 2019 (GMT -0500)
Hemphill County

Weather History for KHHF - September, 2019

Change the Weather History Date:

Wednesday, September 18, 2019

  Actual Average (WUND) Record (WUND)
Temperature  
Mean Temperature 84 °F -  
Max Temperature 96 °F - - (-1)
Min Temperature 71 °F - - (-1)
Cooling Degree Days 18    
Growing Degree Days 34 (Base 50)    
Moisture  
Dew Point 63 °F    
Average Humidity 53    
Maximum Humidity 77    
Minimum Humidity 29    
Precipitation  
Precipitation 0.00 in - - ()
Sea Level Pressure  
Sea Level Pressure 29.95 in    
Wind  
Wind Speed 14 mph (South)    
Max Wind Speed 21 mph    
Max Gust Speed 26 mph    
Visibility 10 miles    
Events      
Averages and records for this station are not official NWS values.
T = Trace of Precipitation, MM = Missing Value Source: NWS Daily Summary

Daily Weather History Graph

Daily Weather History Graph

Search for Another Location

Airport or City:

Astronomy

Sep. 18, 2019 Rise Set
Actual Time 7:26 AM CDT 7:44 PM CDT
Civil Twilight 7:00 AM CDT 8:10 PM CDT
Nautical Twilight 6:30 AM CDT 8:40 PM CDT
Astronomical Twilight 6:00 AM CDT 9:10 PM CDT
Moon 10:27 PM CDT 11:24 AM CDT
Length of Visible Light 13h 09m
Length of Day
12h 18m
Waning Gibbous, 82% of the Moon is Illuminated
Sep 18
Waning Gibbous
Sep 21
Last Quarter
Sep 28
New
Oct 5
First Quarter
Oct 13
Full

Hourly Weather History & Observations

Time (CDT) Temp. Heat Index Dew Point Humidity Pressure Visibility Wind Dir Wind Speed Gust Speed Precip Events Conditions
12:20 AM 78.3 °F - 62.1 °F 57% 29.95 in 10.0 mi South 16.1 mph 25.3 mph N/A   Clear
12:35 AM 77.9 °F - 62.2 °F 58% 29.95 in 10.0 mi South 13.8 mph 24.2 mph N/A   Clear
12:55 AM 77.9 °F - 62.6 °F 59% 29.95 in 10.0 mi South 13.8 mph 21.9 mph N/A   Clear
1:15 AM 77.5 °F - 62.8 °F 60% 29.95 in 10.0 mi South 13.8 mph 20.7 mph N/A   Clear
1:35 AM 77.2 °F - 62.8 °F 61% 29.95 in 10.0 mi South 17.3 mph 24.2 mph N/A   Clear
1:55 AM 77.0 °F - 62.8 °F 61% 29.95 in 10.0 mi South 17.3 mph 25.3 mph N/A   Clear
2:15 AM 76.3 °F - 63.0 °F 63% 29.95 in 10.0 mi South 18.4 mph 23.0 mph N/A   Clear
2:55 AM 76.1 °F - 63.5 °F 65% 29.95 in 10.0 mi South 17.3 mph 25.3 mph N/A   Clear
3:15 AM 75.9 °F - 63.5 °F 65% 29.95 in 10.0 mi South 18.4 mph 24.2 mph N/A   Clear
3:35 AM 75.6 °F - 63.5 °F 66% 29.95 in 10.0 mi SSW 17.3 mph - N/A   Clear
3:55 AM 75.2 °F - 63.7 °F 67% 29.95 in 10.0 mi SSW 13.8 mph 19.6 mph N/A   Clear
4:15 AM 74.3 °F - 63.5 °F 69% 29.95 in 10.0 mi SSW 13.8 mph - N/A   Clear
4:35 AM 73.8 °F - 63.7 °F 71% 29.95 in 10.0 mi SSW 12.7 mph 18.4 mph N/A   Clear
4:55 AM 73.4 °F - 63.7 °F 71% 29.95 in 10.0 mi SSW 11.5 mph 18.4 mph N/A   Clear
5:15 AM 73.0 °F - 63.7 °F 72% 29.95 in 10.0 mi SSW 11.5 mph 18.4 mph N/A   Clear
5:35 AM 72.5 °F - 63.7 °F 74% 29.95 in 10.0 mi SSW 13.8 mph 17.3 mph N/A   Clear
5:55 AM 72.5 °F - 63.9 °F 74% 29.95 in 10.0 mi SSW 11.5 mph 19.6 mph N/A   Clear
6:15 AM 72.5 °F - 64.2 °F 75% 29.95 in 10.0 mi SSW 13.8 mph 19.6 mph N/A   Clear
6:35 AM 72.0 °F - 64.0 °F 76% 29.96 in 10.0 mi SSW 12.7 mph 17.3 mph N/A   Clear
6:55 AM 72.0 °F - 64.4 °F 77% 29.96 in 10.0 mi SSW 13.8 mph - N/A   Clear
7:15 AM 71.8 °F - 64.4 °F 77% 29.96 in 10.0 mi SSW 12.7 mph 18.4 mph N/A   Clear
7:35 AM 72.1 °F - 64.6 °F 77% 29.96 in 10.0 mi SSW 13.8 mph 20.7 mph N/A   Clear
7:55 AM 72.0 °F - 64.6 °F 77% 29.97 in 10.0 mi SSW 12.7 mph 18.4 mph N/A   Clear
8:15 AM 72.5 °F - 64.6 °F 76% 29.98 in 10.0 mi SSW 10.4 mph 18.4 mph N/A   Clear
8:35 AM 73.4 °F - 64.9 °F 75% 29.98 in 10.0 mi SSW 12.7 mph - N/A   Clear
8:55 AM 75.2 °F - 65.3 °F 71% 29.98 in 10.0 mi SSW 13.8 mph - N/A   Clear
9:15 AM 77.2 °F - 65.5 °F 67% 29.98 in 10.0 mi SSW 16.1 mph - N/A   Clear
9:35 AM 79.0 °F - 65.5 °F 63% 29.98 in 10.0 mi South 13.8 mph - N/A   Clear
9:55 AM 81.1 °F 82.9 °F 65.3 °F 58% 29.98 in 10.0 mi SSW 19.6 mph 23.0 mph N/A   Clear
10:15 AM 82.9 °F 84.6 °F 64.8 °F 54% 29.99 in 10.0 mi SSW 17.3 mph 24.2 mph N/A   Clear
10:35 AM 84.2 °F 85.8 °F 64.9 °F 52% 29.99 in 10.0 mi SSW 18.4 mph 21.9 mph N/A   Clear
10:55 AM 85.8 °F 87.4 °F 64.8 °F 49% 29.98 in 10.0 mi SSW 15.0 mph 26.5 mph N/A   Clear
11:15 AM 86.9 °F 87.8 °F 63.5 °F 45% 29.98 in 10.0 mi SSW 18.4 mph 25.3 mph N/A   Clear
11:35 AM 88.3 °F 89.2 °F 63.5 °F 43% 29.98 in 10.0 mi SSW 20.7 mph 25.3 mph N/A   Clear
11:55 AM 90.5 °F 91.4 °F 63.1 °F 40% 29.98 in 10.0 mi SSW 18.4 mph 23.0 mph N/A   Clear
12:15 PM 91.2 °F 91.8 °F 62.1 °F 38% 29.98 in 10.0 mi SSW 18.4 mph 24.2 mph N/A   Clear
12:35 PM 91.6 °F 92.0 °F 62.2 °F 37% 29.98 in 10.0 mi SSW 18.4 mph 23.0 mph N/A   Clear
12:55 PM 92.8 °F 93.5 °F 62.6 °F 36% 29.98 in 10.0 mi SSW 15.0 mph 23.0 mph N/A   Clear
1:15 PM 92.5 °F 93.3 °F 62.4 °F 37% 29.97 in 10.0 mi SSW 16.1 mph 23.0 mph N/A   Clear
1:35 PM 93.2 °F 93.7 °F 62.1 °F 35% 29.96 in 10.0 mi SSW 13.8 mph 20.7 mph N/A   Clear
1:55 PM 93.9 °F 94.4 °F 61.7 °F 34% 29.96 in 10.0 mi SSW 15.0 mph 25.3 mph N/A   Clear
2:15 PM 94.5 °F 95.2 °F 61.7 °F 34% 29.95 in 10.0 mi SW 17.3 mph 21.9 mph N/A   Clear
2:35 PM 95.4 °F 95.7 °F 61.2 °F 32% 29.94 in 10.0 mi SSW 13.8 mph 18.4 mph N/A   Clear
2:55 PM 95.4 °F 95.7 °F 61.2 °F 32% 29.93 in 10.0 mi SSW 15.0 mph 21.9 mph N/A   Clear
3:15 PM 95.7 °F 96.3 °F 61.3 °F 32% 29.92 in 10.0 mi South 13.8 mph 21.9 mph N/A   Clear
3:35 PM 95.4 °F 96.2 °F 61.7 °F 33% 29.92 in 10.0 mi SSW 18.4 mph 24.2 mph N/A   Clear
3:55 PM 96.1 °F 96.4 °F 61.0 °F 31% 29.91 in 10.0 mi South 15.0 mph 24.2 mph N/A   Clear
4:15 PM 96.6 °F 96.4 °F 59.7 °F 29% 29.91 in 10.0 mi SSW 16.1 mph 19.6 mph N/A   Clear
4:35 PM 95.5 °F 96.0 °F 61.0 °F 32% 29.90 in 10.0 mi South 13.8 mph 24.2 mph N/A   Clear
4:55 PM 95.7 °F 95.9 °F 61.0 °F 31% 29.90 in 10.0 mi South 13.8 mph 25.3 mph N/A   Clear
5:15 PM 91.8 °F 92.2 °F 61.9 °F 37% 29.90 in 10.0 mi SSE 11.5 mph 18.4 mph N/A   Scattered Clouds
5:35 PM 91.0 °F 91.5 °F 62.4 °F 38% 29.90 in 10.0 mi SSE 15.0 mph - N/A   Clear
5:55 PM 90.5 °F 91.1 °F 62.6 °F 39% 29.91 in 10.0 mi SSE 12.7 mph 17.3 mph N/A   Clear
6:15 PM 90.5 °F 91.4 °F 63.0 °F 40% 29.90 in 10.0 mi SSE 13.8 mph - N/A   Clear
6:35 PM 90.1 °F 90.9 °F 63.0 °F 40% 29.91 in 10.0 mi SSE 11.5 mph - N/A   Clear
6:55 PM 88.9 °F 89.4 °F 62.6 °F 41% 29.91 in 10.0 mi SSE 10.4 mph - N/A   Clear
7:15 PM 88.3 °F 88.9 °F 62.8 °F 42% 29.92 in 10.0 mi SSE 11.5 mph - N/A   Clear
7:35 PM 87.8 °F 88.8 °F 63.7 °F 44% 29.92 in 10.0 mi SSE 11.5 mph 18.4 mph N/A   Clear
7:55 PM 87.8 °F 89.4 °F 64.4 °F 46% 29.94 in 10.0 mi South 11.5 mph - N/A   Clear
8:15 PM 86.2 °F 87.6 °F 64.4 °F 48% 29.94 in 10.0 mi SSW 6.9 mph 17.3 mph N/A   Clear
8:35 PM 83.8 °F 85.1 °F 64.0 °F 51% 29.95 in 10.0 mi SW 3.5 mph - N/A   Clear
8:55 PM 83.7 °F 84.9 °F 63.9 °F 51% 29.95 in 10.0 mi SSE 5.8 mph - N/A   Clear
9:15 PM 82.8 °F 84.0 °F 63.5 °F 52% 29.96 in 10.0 mi SSE 4.6 mph - N/A   Clear
9:35 PM 81.5 °F 82.7 °F 62.8 °F 53% 29.97 in 10.0 mi SE 6.9 mph - N/A   Clear
9:55 PM 81.7 °F 82.6 °F 61.7 °F 51% 29.97 in 10.0 mi SSE 6.9 mph - N/A   Clear
10:15 PM 81.5 °F 82.5 °F 62.1 °F 52% 29.98 in 10.0 mi South 8.1 mph - N/A   Clear
10:35 PM 80.6 °F 81.7 °F 62.2 °F 53% 29.98 in 10.0 mi South 10.4 mph - N/A   Clear
10:55 PM 80.1 °F 81.5 °F 63.1 °F 56% 29.98 in 10.0 mi South 8.1 mph - N/A   Clear
11:15 PM 79.0 °F - 63.5 °F 59% 29.98 in 10.0 mi South 9.2 mph - N/A   Clear
11:35 PM 78.8 °F - 64.8 °F 62% 29.98 in 10.0 mi South 9.2 mph - N/A   Clear
11:55 PM 78.4 °F - 65.5 °F 64% 29.98 in 10.0 mi SSE 11.5 mph - N/A   Clear